Wind_Speed
18 19 17 16 17 19 20 23 23 25 27 32 33 35 35 37 37 38 41 42 42 42 45 43 44 44 43 43 43 46 44 46 48 50 51 51 51 53 58 59 60 60 59 59
17 18 18 18 19 21 22 25 25 28 31 33 35 40 37 41 42 45 45 48 43 45 48 48 49 47 46 47 47 48 48 48 48 49 50 50 51 51 52 55 58 60 61 62
17 19 20 19 20 22 22 26 25 30 32 34 38 41 42 46 45 44 43 47 47 44 45 47 48 50 51 52 53 53 52 50 49 48 48 47 46 48 51 53 55 57 60 62
19 21 21 21 24 26 27 34 32 35 37 40 40 44 41 41 44 51 50 49 44 42 45 47 50 51 51 52 52 52 52 51 50 49 49 51 54 57 59 61 62 62 63 65
25 26 27 28 29 33 34 37 40 41 42 44 42 50 47 47 49 54 54 52 51 50 52 52 51 52 51 51 50 49 48 49 51 53 55 58 62 63 61 63 65 68 68 68
32 32 30 30 31 35 37 41 43 44 48 51 47 52 45 41 47 57 57 57 56 56 54 55 54 51 50 50 50 50 52 53 54 56 58 60 63 67 69 71 71 71 72 72
33 35 36 31 36 38 42 40 44 48 46 50 45 57 55 53 55 56 57 57 57 57 59 61 61 58 54 49 48 49 51 53 55 56 59 63 68 73 78 81 79 74 67 63
39 38 40 40 35 37 40 47 43 49 49 50 44 54 50 58 59 59 59 60 57 60 61 62 61 59 55 54 54 54 56 57 61 65 68 71 75 79 83 77 62 55 55 58
43 44 48 44 47 45 43 48 48 51 51 54 55 55 42 53 59 60 62 56 58 59 59 58 55 53 52 55 56 53 56 62 67 71 77 80 81 85 67 52 49 48 47 51
47 50 46 47 56 50 52 49 51 56 57 57 55 54 35 43 57 57 60 60 63 64 63 56 53 55 51 54 58 61 64 69 74 79 83 84 71 59 53 45 41 43 41 44
49 54 52 55 52 53 54 58 57 55 58 58 58 55 55 57 54 58 61 64 66 66 60 54 52 53 56 59 62 66 71 76 80 84 68 47 49 48 53 33 34 35 34 34
52 55 54 55 51 51 50 45 49 52 52 56 60 58 53 60 64 61 61 63 62 56 52 53 56 57 60 62 66 72 78 83 85 80 63 54 46 41 43 35 34 34 27 24
49 53 52 54 53 50 49 51 54 58 58 62 61 66 61 63 64 65 66 63 55 52 55 56 58 61 64 67 73 78 81 77 65 57 48 44 42 43 48 47 34 33 33 32
49 49 49 50 46 50 54 59 62 62 65 63 65 63 61 61 64 65 65 58 57 57 56 57 61 66 69 73 78 81 69 53 48 44 40 39 37 38 38 37 38 29 27 28
51 53 57 56 57 60 61 61 59 64 65 66 58 59 56 61 65 64 60 59 57 57 57 59 65 70 74 78 73 54 44 35 34 35 34 35 33 30 27 26 31 28 28 26
59 54 55 54 57 61 64 66 65 64 62 60 59 57 56 59 60 58 55 55 56 58 61 65 68 72 69 61 45 37 33 33 32 32 29 33 34 34 35 28 23 21 21 21
56 55 61 59 60 63 66 61 62 61 57 57 59 56 56 56 54 55 55 55 61 61 65 70 70 59 51 43 37 33 34 31 34 33 31 31 27 29 30 29 31 32 29 27
56 60 62 63 63 66 64 61 61 58 54 56 57 54 51 51 51 54 55 61 63 67 71 70 60 45 41 38 36 32 31 32 30 30 32 33 31 28 25 30 31 35 34 34
58 60 62 62 62 62 65 60 58 58 54 55 55 50 49 51 53 54 61 65 68 72 71 60 44 36 39 37 34 34 33 27 24 27 28 27 30 31 35 35 34 34 36 35
56 57 60 62 64 63 60 59 58 56 55 51 52 50 51 53 56 60 66 68 70 67 65 44 35 33 34 36 33 31 28 28 29 24 23 25 30 34 36 34 30 31 25 25
57 59 61 61 61 62 57 61 57 53 52 53 49 50 53 58 64 67 69 70 69 50 40 35 32 30 33 35 28 28 29 30 24 25 27 28 32 33 32 29 28 18 23 21
59 61 61 57 56 59 55 56 55 52 50 48 51 55 61 65 67 69 69 67 51 37 36 32 30 26 33 32 28 29 29 25 23 25 30 29 28 26 25 24 19 20 23 23
62 57 56 58 53 54 50 52 51 49 51 53 56 61 67 71 71 70 66 56 44 39 35 34 30 41 28 30 31 30 29 25 26 26 27 32 23 22 20 20 18 20 21 24
54 51 56 54 48 49 52 49 49 52 54 57 63 68 70 70 67 61 53 50 42 43 38 35 28 35 32 36 28 26 27 24 24 22 21 19 24 21 19 18 18 17 18 21
51 52 49 50 49 46 47 48 51 55 60 63 67 68 63 56 49 42 42 43 40 42 39 39 31 39 40 34 27 27 27 25 24 21 18 18 21 24 20 16 19 20 20 22
45 47 49 47 45 45 47 51 57 62 65 65 58 47 43 40 37 39 40 36 36 35 42 45 32 27 32 31 30 29 26 23 23 19 19 19 20 24 26 27 24 24 24 25
Wind_Direction
247 250 254 257 263 264 266 271 275 276 276 281 286 284 284 287 285 289 289 288 289 289 288 291 291 288 285 282 282 284 277 275 274 274 274 275 276 275 274 274 275 278 278 279
244 244 252 259 266 272 276 280 282 286 287 290 290 291 293 291 292 290 290 290 294 294 296 295 293 291 287 285 284 284 282 278 274 272 273 274 274 274 272 272 272 275 277 278
254 264 265 267 268 269 277 281 283 284 286 289 292 293 297 295 295 289 285 287 291 292 295 293 292 291 290 288 287 285 283 281 280 277 276 276 277 280 281 278 276 274 275 277
272 271 276 282 290 295 298 292 298 296 297 296 293 296 292 294 294 293 295 297 293 296 296 293 291 289 288 288 285 283 282 282 281 281 280 281 284 288 290 290 287 283 279 278
279 278 280 284 289 294 297 295 296 295 293 294 302 297 301 299 299 301 300 308 305 302 299 296 294 293 291 287 281 279 279 280 283 284 285 286 290 292 290 288 287 288 286 282
278 281 282 284 288 289 290 294 294 295 294 292 302 297 303 300 299 299 301 303 301 297 296 295 293 289 284 279 276 275 275 275 277 281 281 284 289 293 293 292 291 289 287 281
275 281 277 280 291 293 293 293 294 296 297 298 300 298 300 300 295 298 298 296 295 295 294 292 290 290 287 283 278 277 279 282 283 285 290 295 296 296 295 293 289 286 284 279
279 280 283 287 289 293 295 296 298 291 293 292 281 291 295 294 295 297 298 298 297 292 292 290 288 288 288 287 285 287 292 294 295 296 296 294 293 292 292 293 291 283 275 262
277 281 284 287 289 289 291 289 286 287 287 286 290 296 300 295 294 295 299 301 296 292 289 288 290 290 290 291 292 291 296 298 301 302 301 300 298 293 295 291 283 278 270 267
275 276 278 283 288 286 282 286 290 291 289 290 292 298 285 275 289 298 298 295 292 289 288 292 290 290 294 295 297 297 298 300 301 301 300 299 298 293 290 286 278 274 272 266
275 275 279 281 286 282 287 288 288 287 286 289 291 289 289 292 291 292 293 290 288 288 291 290 292 295 296 297 298 299 300 301 302 299 297 282 287 295 287 271 281 268 243 248
276 281 285 284 284 286 288 287 289 293 298 294 292 291 291 292 296 292 289 286 287 287 287 290 292 294 296 298 299 301 302 299 296 295 291 285 279 256 275 267 274 258 246 246
285 286 286 289 287 283 284 286 290 294 292 293 290 302 297 295 293 292 291 291 287 285 287 291 294 296 298 301 301 301 298 297 292 288 285 279 274 269 264 268 274 260 246 240
282 283 290 288 279 280 289 293 295 291 289 293 293 298 293 291 290 291 289 284 284 286 290 294 298 301 301 302 300 297 298 290 284 282 280 279 281 273 267 259 267 250 242 244
280 283 287 284 279 286 291 290 287 291 294 290 296 291 288 289 288 288 287 286 289 292 298 299 301 301 301 300 299 294 290 284 282 283 278 281 287 286 290 287 277 249 241 238
290 288 282 280 287 289 289 288 290 293 292 290 287 290 290 285 284 284 286 288 293 296 298 300 300 299 298 298 288 288 282 282 285 279 274 278 287 286 290 283 275 285 268 255
284 285 287 285 288 288 288 298 293 293 291 287 286 290 287 285 286 288 292 296 296 300 299 300 300 298 293 279 277 283 279 283 290 279 280 282 279 283 283 280 279 278 273 267
280 285 284 284 288 287 293 293 294 292 288 286 288 289 285 285 288 291 296 294 300 300 302 301 298 288 278 273 273 276 284 285 284 277 276 278 279 283 281 286 284 279 270 268
283 283 289 290 291 291 294 295 290 289 287 283 282 281 285 287 290 295 296 300 301 301 298 296 289 276 278 276 270 273 284 281 279 280 286 285 282 283 285 288 287 272 262 262
282 283 286 291 290 292 288 292 289 286 283 279 280 283 287 293 296 298 301 300 298 296 296 289 275 273 270 275 274 275 272 278 280 282 284 285 287 285 283 282 276 271 253 236
282 284 289 289 286 290 286 284 285 279 281 282 289 292 295 297 299 301 302 297 294 295 282 275 268 260 258 272 269 268 268 279 285 292 295 296 288 275 268 271 268 247 240 232
282 283 287 284 280 280 282 279 277 277 283 290 296 298 299 300 299 298 294 292 291 279 273 267 271 261 259 262 261 267 272 274 286 289 289 293 291 264 271 252 252 241 233 231
282 285 280 277 278 274 273 273 279 284 292 296 297 298 299 299 297 292 291 289 280 269 266 267 275 238 242 263 268 268 267 276 284 292 297 298 264 259 266 242 242 244 240 236
278 277 277 271 274 270 271 280 289 295 295 294 295 295 294 291 290 292 292 283 272 260 264 268 268 255 258 268 264 258 270 276 284 291 301 303 258 255 247 242 239 237 240 240
273 273 268 267 267 274 283 290 290 290 289 289 291 291 289 290 296 296 292 284 276 262 260 273 277 250 254 260 252 258 267 278 289 285 292 292 280 262 258 259 254 246 243 246
264 265 265 272 280 287 288 287 287 289 288 291 290 287 292 296 296 292 292 282 274 268 263 270 267 243 247 247 250 258 263 270 279 279 282 284 292 275 256 253 257 254 249 249
Height
5798 5799 5798 5798 5798 5799 5799 5799 5798 5797 5796 5793 5793 5791 5790 5788 5786 5783 5779 5777 5775 5772 5768 5767 5764 5761 5757 5754 5752 5750 5748 5746 5744 5743 5741 5738 5738 5735 5732 5731 5729 5727 5726 5725
5794 5795 5794 5793 5794 5794 5793 5793 5792 5791 5789 5788 5787 5783 5784 5781 5781 5777 5774 5769 5768 5765 5762 5760 5755 5752 5748 5744 5741 5739 5737 5735 5733 5731 5729 5727 5725 5723 5721 5720 5719 5717 5715 5714
5788 5790 5788 5788 5788 5787 5787 5785 5785 5782 5781 5780 5776 5774 5772 5768 5768 5767 5766 5761 5759 5755 5751 5748 5744 5741 5737 5733 5730 5727 5725 5722 5720 5719 5717 5714 5713 5712 5710 5709 5707 5706 5703 5701
5783 5784 5784 5784 5783 5783 5783 5779 5780 5777 5775 5772 5769 5766 5763 5761 5755 5747 5747 5748 5746 5744 5742 5738 5734 5729 5725 5722 5719 5715 5712 5710 5708 5706 5704 5702 5699 5697 5695 5693 5691 5689 5687 5684
5779 5779 5779 5779 5777 5775 5776 5774 5772 5770 5767 5763 5765 5757 5755 5751 5747 5741 5738 5740 5737 5735 5730 5724 5720 5716 5713 5710 5708 5705 5703 5700 5697 5694 5692 5689 5687 5684 5680 5676 5673 5671 5668 5665
5771 5770 5771 5770 5770 5768 5767 5764 5763 5761 5758 5755 5755 5748 5747 5744 5740 5730 5728 5728 5725 5721 5715 5711 5706 5703 5700 5698 5696 5695 5692 5690 5688 5685 5682 5678 5674 5670 5664 5658 5654 5652 5651 5648
5764 5763 5761 5765 5762 5761 5758 5758 5753 5752 5749 5746 5742 5735 5733 5733 5729 5723 5719 5719 5713 5707 5703 5699 5694 5690 5687 5686 5684 5681 5679 5677 5674 5669 5665 5659 5654 5648 5642 5636 5631 5627 5625 5625
5754 5755 5752 5751 5755 5753 5750 5745 5745 5739 5740 5739 5736 5730 5729 5721 5714 5711 5707 5703 5700 5693 5689 5682 5679 5677 5673 5670 5666 5663 5661 5657 5653 5648 5643 5638 5632 5625 5617 5610 5605 5605 5602 5601
5745 5746 5740 5743 5740 5741 5742 5736 5734 5731 5729 5725 5725 5721 5713 5706 5702 5700 5695 5692 5684 5677 5671 5669 5666 5662 5660 5656 5651 5652 5648 5643 5636 5630 5624 5616 5609 5601 5595 5590 5589 5587 5585 5585
5737 5733 5734 5733 5725 5732 5727 5727 5722 5715 5712 5709 5712 5710 5706 5691 5687 5687 5684 5678 5669 5663 5658 5656 5653 5648 5647 5643 5639 5636 5631 5625 5619 5611 5603 5594 5587 5582 5579 5577 5573 5573 5573 5572
5724 5722 5726 5720 5721 5717 5715 5709 5707 5705 5702 5699 5699 5701 5687 5685 5676 5669 5667 5660 5654 5649 5647 5643 5639 5637 5633 5629 5625 5619 5614 5608 5600 5594 5586 5580 5575 5572 5563 5564 5562 5562 5563 5562
5708 5705 5708 5706 5705 5703 5703 5702 5697 5690 5692 5684 5679 5685 5682 5672 5666 5660 5653 5645 5642 5638 5635 5629 5625 5621 5618 5614 5609 5601 5595 5589 5583 5575 5569 5564 5560 5559 5555 5553 5554 5555 5553 5555
5695 5692 5690 5690 5690 5690 5688 5686 5684 5679 5675 5672 5665 5670 5660 5654 5649 5644 5638 5633 5630 5626 5622 5617 5611 5607 5602 5597 5592 5584 5576 5568 5560 5556 5555 5550 5547 5546 5542 5544 5546 5548 5549 5548
5680 5680 5679 5679 5676 5673 5672 5670 5668 5662 5654 5657 5650 5648 5647 5641 5633 5629 5624 5621 5617 5613 5609 5603 5596 5589 5585 5580 5571 5565 5556 5550 5546 5544 5542 5540 5538 5536 5535 5534 5538 5539 5540 5541
5667 5667 5665 5668 5663 5658 5655 5654 5652 5647 5643 5633 5640 5629 5630 5626 5619 5614 5610 5605 5601 5598 5594 5588 5581 5572 5564 5559 5553 5545 5541 5538 5536 5534 5533 5532 5530 5529 5528 5528 5530 5531 5532 5533
5654 5652 5648 5653 5647 5643 5639 5637 5633 5631 5625 5617 5614 5616 5614 5609 5604 5602 5597 5592 5589 5584 5580 5573 5565 5555 5547 5541 5537 5534 5532 5530 5527 5526 5525 5525 5523 5522 5520 5522 5523 5524 5525 5526
5639 5638 5632 5634 5629 5624 5619 5624 5615 5612 5609 5601 5596 5601 5599 5595 5589 5584 5583 5579 5572 5570 5563 5557 5547 5539 5534 5529 5527 5527 5524 5522 5520 5518 5518 5517 5516 5515 5515 5515 5514 5515 5518 5520
5625 5622 5617 5617 5612 5606 5609 5605 5601 5597 5595 5589 5584 5584 5582 5581 5578 5572 5568 5559 5557 5550 5544 5538 5532 5527 5523 5520 5518 5518 5516 5515 5512 5511 5510 5509 5509 5509 5508 5508 5507 5506 5508 5510
5611 5606 5601 5598 5594 5596 5590 5588 5584 5581 5584 5578 5574 5573 5570 5566 5563 5558 5548 5545 5538 5532 5526 5521 5518 5515 5513 5511 5510 5509 5508 5507 5506 5505 5504 5502 5501 5501 5500 5499 5497 5496 5497 5499
5596 5592 5588 5584 5580 5577 5571 5574 5569 5567 5568 5564 5562 5561 5556 5551 5546 5543 5533 5527 5519 5512 5508 5506 5506 5505 5507 5503 5503 5502 5502 5501 5500 5498 5497 5495 5494 5492 5491 5489 5488 5487 5487 5490
5582 5575 5574 5568 5561 5563 5561 5552 5561 5556 5555 5552 5549 5545 5540 5535 5529 5525 5518 5510 5503 5498 5495 5494 5494 5496 5500 5496 5497 5495 5495 5495 5492 5491 5489 5487 5485 5483 5482 5481 5481 5481 5484 5485
5566 5561 5557 5555 5549 5546 5548 5544 5544 5541 5540 5537 5534 5528 5522 5517 5511 5504 5498 5492 5488 5487 5486 5486 5486 5486 5489 5488 5488 5488 5488 5487 5486 5484 5483 5480 5476 5475 5475 5474 5475 5477 5479 5481
5547 5548 5542 5541 5541 5534 5535 5532 5530 5528 5526 5522 5517 5512 5504 5498 5493 5486 5480 5477 5476 5476 5476 5476 5476 5475 5480 5480 5480 5481 5480 5479 5479 5478 5475 5472 5469 5469 5468 5469 5471 5473 5474 5476
5531 5529 5526 5523 5533 5523 5520 5520 5516 5511 5509 5506 5502 5496 5488 5481 5476 5470 5466 5462 5462 5463 5467 5467 5467 5469 5471 5472 5471 5472 5473 5472 5472 5471 5469 5465 5463 5463 5464 5465 5467 5468 5470 5471
5515 5513 5513 5515 5516 5512 5510 5505 5500 5497 5493 5490 5485 5477 5470 5464 5462 5457 5454 5451 5450 5452 5455 5457 5459 5460 5462 5463 5465 5465 5465 5465 5465 5465 5463 5462 5460 5459 5460 5461 5462 5463 5464 5466
5503 5502 5502 5504 5501 5498 5497 5492 5486 5482 5477 5471 5465 5461 5456 5453 5451 5447 5444 5442 5441 5442 5446 5448 5451 5451 5453 5455 5457 5457 5458 5457 5458 5459 5458 5457 5456 5454 5453 5455 5456 5457 5458 5460